This demonstration page uses our WeatherBlox Daily Observations layout. Learn more.

Hourly Observations for August 30, 2019

Temp ( °F °C ) Dew Point ( °F °C ) Humidity (%) Winds ( mph kmh ) Pressure ( in mb ) Visibility ( mi km ) Precip ( " mm )
12:15 am 00:15 Clear 60 15.8 54 12 78 78 ENE 3 6 30.03 1017 10 16.09344 0 0
12:35 am 00:35 Clear 60 15.5 53 11.8 79 79 NNE 3 6 30.03 1017 10 16.09344 0 0
12:55 am 00:55 Clear 58 14.7 54 12.3 86 86 N 6 9 30.03 1017 10 16.09344 0 0
1:15 am 01:15 Partly Cloudy 58 14.2 55 12.5 90 90 N 8 13 30.03 1017 10 16.09344 0 0
1:35 am 01:35 Clear 58 14.2 54 12.1 87 87 N 6 9 30.06 1018 10 16.09344 0 0
1:55 am 01:55 Clear 57 14.1 54 12.2 88 88 NNE 5 7 30.06 1018 10 16.09344 0 0
2:15 am 02:15 Clear 57 14 54 12.2 89 89 NE 6 9 30.09 1019 10 16.09344 0 0
2:35 am 02:35 Partly Cloudy 57 14.1 53 11.9 87 87 ENE 8 13 30.06 1018 10 16.09344 0 0
2:55 am 02:55 Partly Cloudy 58 14.6 53 11.5 82 82 ENE 8 13 30.06 1018 10 16.09344 0 0
3:15 am 03:15 Cloudy 60 15.5 53 11.6 78 78 E 13 20 30.09 1019 10 16.09344 0 0
3:35 am 03:35 Partly Cloudy 60 15.5 52 11.2 76 76 E 13 20 30.06 1018 10 16.09344 0 0
3:55 am 03:55 Partly Cloudy 60 15.5 53 11.4 77 77 ENE 12 19 30.09 1019 10 16.09344 0 0
4:15 am 04:15 Partly Cloudy 59 15 53 11.5 80 80 NNE 8 13 30.09 1019 10 16.09344 0 0
4:35 am 04:35 Cloudy 59 15.2 53 11.8 80 80 NNE 6 9 30.09 1019 10 16.09344 0 0
4:55 am 04:55 Partly Cloudy 58 14.5 53 11.8 84 84 NE 6 9 30.09 1019 10 16.09344 0 0
5:15 am 05:15 Partly Cloudy 58 14.2 53 11.7 85 85 NE 6 9 30.12 1020 10 16.09344 0 0
5:35 am 05:35 Partly Cloudy 57 13.7 53 11.8 88 88 NE 6 9 30.12 1020 10 16.09344 0 0
5:55 am 05:55 Clear 56 13.3 53 11.6 90 90 NE 3 6 30.12 1020 10 16.09344 0 0
6:15 am 06:15 Clear 56 13.1 53 11.5 90 90 Calm 30.12 1020 10 16.09344 0 0
6:35 am 06:35 Mostly Cloudy 56 13.4 53 11.5 88 88 Calm 30.15 1021 10 16.09344 0 0
6:55 am 06:55 Cloudy 56 13.2 53 11.9 92 92 Calm 30.15 1021 10 16.09344 0 0
7:15 am 07:15 Cloudy 56 13.5 53 11.7 89 89 NE 6 9 30.15 1021 10 16.09344 0 0
7:35 am 07:35 Mostly Cloudy 56 13.1 53 11.6 91 91 ENE 7 11 30.15 1021 10 16.09344 0 0
7:55 am 07:55 Partly Cloudy 56 13.6 53 11.8 89 89 ENE 8 13 30.15 1021 10 16.09344 0 0
8:15 am 08:15 Partly Cloudy 58 14.3 53 11.9 86 86 ENE 9 15 30.15 1021 10 16.09344 0 0
8:35 am 08:35 Cloudy 59 14.9 54 12 83 83 E 9 15 30.12 1020 10 16.09344 0 0
8:55 am 08:55 Cloudy 60 15.5 54 12.3 81 81 E 9 15 30.12 1020 10 16.09344 0 0
9:15 am 09:15 Cloudy 60 15.8 55 12.5 81 81 E 8 13 30.12 1020 10 16.09344 0 0
9:35 am 09:35 Cloudy 61 16 55 12.5 80 80 E 10 17 30.12 1020 10 16.09344 0 0
9:55 am 09:55 Cloudy 61 16.2 55 12.9 81 81 ESE 9 15 30.15 1021 10 16.09344 0 0
10:15 am 10:15 Cloudy 61 16.3 56 13.1 81 81 ESE 8 13 30.15 1021 10 16.09344 0 0
10:35 am 10:35 Cloudy 62 16.6 56 13.6 83 83 E 8 13 30.15 1021 10 16.09344 0 0
10:55 am 10:55 Cloudy 62 16.8 57 13.7 82 82 E 10 17 30.15 1021 10 16.09344 0 0
11:15 am 11:15 Cloudy 63 17 57 14 83 83 E 7 11 30.15 1021 10 16.09344 0 0
11:35 am 11:35 Cloudy 63 17.3 58 14.4 83 83 ESE 8 13 30.15 1021 10 16.09344 0 0
11:55 am 11:55 Cloudy 64 17.6 58 14.6 83 83 ESE 6 9 30.15 1021 10 16.09344 0 0
12:15 pm 12:15 Cloudy 65 18.3 59 15.2 82 82 E 7 11 30.12 1020 10 16.09344 0 0
12:35 pm 12:35 Cloudy 66 18.9 61 16 83 83 E 7 11 30.09 1019 10 16.09344 0 0
12:55 pm 12:55 Cloudy 66 18.8 60 15.8 83 83 E 6 9 30.09 1019 10 16.09344 0 0
1:15 pm 13:15 Cloudy 67 19.4 62 16.5 83 83 ENE 5 7 30.09 1019 10 16.09344 0 0
1:35 pm 13:35 Cloudy 67 19.5 62 16.5 83 83 E 5 7 30.09 1019 10 16.09344 0 0
1:55 pm 13:55 Cloudy 67 19.7 62 16.9 84 84 E 6 9 30.09 1019 10 16.09344 0 0
2:15 pm 14:15 Cloudy 68 20.1 63 17 82 82 ENE 7 11 30.09 1019 10 16.09344 0 0
2:35 pm 14:35 Cloudy 69 20.4 63 17.2 82 82 E 7 11 30.09 1019 10 16.09344 0 0
2:55 pm 14:55 Cloudy 70 21 63 17.2 79 79 E 6 9 30.09 1019 10 16.09344 0 0
3:15 pm 15:15 Cloudy 70 21.3 63 17.4 79 79 SE 7 11 30.09 1019 10 16.09344 0 0
3:35 pm 15:35 Cloudy 70 21 63 17.4 80 80 ESE 5 7 30.09 1019 10 16.09344 0 0
3:55 pm 15:55 Cloudy 71 21.6 64 17.8 79 79 E 8 13 30.03 1017 10 16.09344 0 0
4:15 pm 16:15 Cloudy 70 20.9 64 17.8 83 83 E 7 11 30.09 1019 10 16.09344 0 0
4:35 pm 16:35 Cloudy 69 20.7 64 18 85 85 ENE 6 9 30.06 1018 10 16.09344 0 0
4:55 pm 16:55 Cloudy 69 20.5 65 18.1 86 86 ENE 8 13 30.06 1018 10 16.09344 0 0
5:15 pm 17:15 Cloudy 69 20.5 64 18 86 86 E 7 11 30.06 1018 10 16.09344 0 0
5:35 pm 17:35 Cloudy 69 20.3 65 18.1 87 87 E 8 13 30.06 1018 10 16.09344 0 0
5:55 pm 17:55 Cloudy 69 20.5 64 18 86 86 E 9 15 30.03 1017 10 16.09344 0 0
6:15 pm 18:15 Cloudy 69 20.3 64 17.9 86 86 E 12 19 30.03 1017 10 16.09344 0 0
6:35 pm 18:35 Cloudy 69 20.5 65 18.1 86 86 ESE 13 20 30.03 1017 10 16.09344 0 0
6:55 pm 18:55 Cloudy 69 20.6 65 18.2 86 86 ESE 14 22 29.97 1015 10 16.09344 0 0
7:15 pm 19:15 Cloudy 69 20.8 65 18.3 86 86 SE 12 19 29.97 1015 10 16.09344 0 0
7:35 pm 19:35 Partly Cloudy 69 20.5 65 18.3 87 87 SE 10 17 29.97 1015 10 16.09344 0 0
7:55 pm 19:55 Mostly Cloudy 69 20.5 65 18.5 88 88 SE 10 17 30.03 1017 10 16.09344 0 0
8:15 pm 20:15 Cloudy 69 20.4 66 18.7 90 90 ESE 8 13 30.03 1017 10 16.09344 0 0
8:35 pm 20:35 Cloudy 68 20.2 66 18.7 91 91 ESE 12 19 30.03 1017 10 16.09344 0 0
8:55 pm 20:55 Cloudy 68 20 66 18.7 92 92 E 8 13 30.06 1018 10 16.09344 0 0
9:15 pm 21:15 Cloudy 68 19.8 66 18.7 93 93 E 7 11 30.06 1018 10 16.09344 0 0
9:35 pm 21:35 Cloudy 67 19.5 66 18.7 95 95 E 9 15 30.09 1019 10 16.09344 0 0
9:55 pm 21:55 Cloudy 67 19.3 65 18.6 96 96 E 8 13 30.09 1019 10 16.09344 0 0
10:15 pm 22:15 Cloudy 67 19.5 65 18.6 95 95 ESE 8 13 30.09 1019 10 16.09344 0 0
10:35 pm 22:35 Cloudy 67 19.3 65 18.6 96 96 ESE 8 13 30.09 1019 10 16.09344 0 0
10:55 pm 22:55 Cloudy 67 19.3 65 18.6 96 96 ESE 8 13 30.09 1019 10 16.09344 0 0
11:15 pm 23:15 Cloudy 67 19.5 65 18.6 95 95 SE 7 11 30.09 1019 10 16.09344 0 0
11:35 pm 23:35 Cloudy 67 19.3 65 18.4 95 95 SE 10 17 30.09 1019 10 16.09344 0 0
11:55 pm 23:55 Partly Cloudy 66 19 65 18.2 95 95 SE 9 15 30.09 1019 10 16.09344 0 0

Powered by AerisWeather